Weather History for KMFI - January, 2012

Change the Weather History Date:

Friday, January 27, 2012

  Actual Average Record
Temperature  
Mean Temperature 26 °F -  
Max Temperature 36 °F - - ()
Min Temperature 16 °F - - ()
Degree Days  
Heating Degree Days 39    
Moisture  
Dew Point 22 °F    
Average Humidity 77    
Maximum Humidity 93    
Minimum Humidity 39    
Precipitation  
Precipitation 0.00 in - - ()
Sea Level Pressure  
Sea Level Pressure 29.77 in    
Wind  
Wind Speed 11 mph (WSW)    
Max Wind Speed 24 mph    
Max Gust Speed 29 mph    
Visibility 7 miles    
Events Rain , Snow    
T = Trace of Precipitation, MM = Missing Value Source: NWS Daily Summary

Daily Weather History Graph

Daily Weather History Graph

Search for Another Location

Airport or City:

Trip Planner

Search our weather history database for the weather conditions in past years. The results will help you decide how hot, cold, wet, or windy it might be!

Date:

Astronomy

Jan. 27, 2012 Rise Set
Actual Time 7:25 AM CST 5:01 PM CST
Civil Twilight 6:53 AM CST 5:33 PM CST
Nautical Twilight 6:18 AM CST 6:08 PM CST
Astronomical Twilight 5:44 AM CST 6:43 PM CST
Moon 9:06 AM CST (1/27) 10:08 PM CST (1/27)
Length of Visible Light 10h 39m
Length of Day
9h 36m
Waxing Crescent, 20% of the Moon is Illuminated
Jan 27
Waxing Crescent
Jan 30
First Quarter
Feb 7
Full
Feb 14
Last Quarter
Feb 21
New

Hourly Weather History & Observations

Time (CST) Temp. Windchill Dew Point Humidity Pressure Visibility Wind Dir Wind Speed Gust Speed Precip Events Conditions
12:17 AM 30.2 °F 21.3 °F 19.4 °F 64% 29.67 in 10.0 mi NNW 10.4 mph - N/A   Scattered Clouds
12:54 AM 26.1 °F 18.4 °F 17.1 °F 69% 29.72 in 10.0 mi NW 6.9 mph - N/A   Clear
1:54 AM 25.0 °F 18.1 °F 17.1 °F 72% 29.74 in 10.0 mi WNW 5.8 mph - N/A   Clear
2:54 AM 24.1 °F 14.4 °F 19.0 °F 81% 29.76 in 10.0 mi WNW 9.2 mph - N/A   Clear
3:54 AM 23.0 °F 12.4 °F 18.0 °F 81% 29.80 in 10.0 mi WNW 10.4 mph - N/A   Clear
4:54 AM 19.9 °F 11.1 °F 16.0 °F 85% 29.81 in 10.0 mi WNW 6.9 mph - N/A   Clear
5:54 AM 17.1 °F 11.7 °F 12.9 °F 84% 29.81 in 10.0 mi WNW 3.5 mph - N/A   Clear
6:54 AM 16.0 °F 10.4 °F 12.0 °F 84% 29.84 in 10.0 mi WSW 3.5 mph - N/A   Clear
7:54 AM 16.0 °F 7.4 °F 12.9 °F 88% 29.86 in 10.0 mi SW 5.8 mph - N/A   Clear
8:54 AM 19.0 °F 12.3 °F 15.1 °F 85% 29.86 in 10.0 mi WSW 4.6 mph - N/A   Clear
9:54 AM 24.1 °F 15.2 °F 16.0 °F 71% 29.86 in 10.0 mi WSW 8.1 mph - N/A   Clear
10:54 AM 28.0 °F 21.7 °F 17.1 °F 63% 29.86 in 10.0 mi SW 5.8 mph - N/A   Clear
11:54 AM 33.1 °F 27.7 °F 18.0 °F 54% 29.83 in 10.0 mi SSW 5.8 mph - N/A   Overcast
1:54 PM 36.0 °F 27.5 °F 12.9 °F 39% 29.82 in 10.0 mi SW 12.7 mph 17.3 mph N/A   Overcast
2:54 PM 36.0 °F 27.1 °F 15.1 °F 43% 29.82 in 10.0 mi WSW 13.8 mph - N/A   Overcast
3:38 PM 33.8 °F 23.9 °F 24.8 °F 70% 29.76 in 2.5 mi SW 15.0 mph 21.9 mph 0.00 in Snow Light Snow
3:46 PM 33.8 °F 24.8 °F 24.8 °F 70% 29.76 in 6.0 mi SW 12.7 mph 24.2 mph 0.00 in Snow Light Snow
3:54 PM 34.0 °F 24.6 °F 23.0 °F 64% 29.81 in 9.0 mi SW 13.8 mph - 0.00 in   Overcast
4:54 PM 34.0 °F 23.8 °F 19.9 °F 56% 29.79 in 10.0 mi SW 16.1 mph - N/A   Overcast
5:54 PM 33.1 °F 20.9 °F 24.1 °F 70% 29.80 in 4.0 mi SW 21.9 mph 27.6 mph 0.00 in Snow Light Snow
6:54 PM 32.0 °F 22.1 °F 26.1 °F 79% 29.80 in 3.0 mi SSW 13.8 mph 25.3 mph 0.00 in Snow Light Snow
7:30 PM 30.2 °F 19.3 °F 26.6 °F 86% 29.73 in 7.0 mi SSW 15.0 mph - 0.00 in   Overcast
7:51 PM 30.2 °F 20.8 °F 28.4 °F 93% 29.72 in 4.0 mi SW 11.5 mph - 0.00 in Rain Light Freezing Rain
7:54 PM 30.9 °F 21.2 °F 28.0 °F 89% 29.78 in 4.0 mi SW 12.7 mph - 0.00 in Rain Light Freezing Rain
8:26 PM 30.2 °F 20.8 °F 28.4 °F 93% 29.71 in 5.0 mi SW 11.5 mph - 0.00 in Snow Light Snow
8:47 PM 30.2 °F 21.3 °F 28.4 °F 93% 29.70 in 4.0 mi SW 10.4 mph - 0.00 in Snow Light Snow
8:54 PM 30.9 °F 23.5 °F 28.9 °F 92% 29.76 in 4.0 mi SW 8.1 mph - 0.00 in Snow Light Snow
9:54 PM 32.0 °F 23.0 °F 28.9 °F 88% 29.75 in 6.0 mi WSW 11.5 mph - 0.00 in Snow Light Snow
10:39 PM 30.2 °F 16.8 °F 26.6 °F 86% 29.71 in 2.5 mi NW 23.0 mph 26.5 mph 0.00 in Snow Light Snow
10:48 PM 30.2 °F 17.8 °F 26.6 °F 86% 29.71 in 3.0 mi NW 19.6 mph - 0.00 in Snow Light Snow
10:54 PM 30.0 °F 16.9 °F 27.0 °F 88% 29.77 in 2.0 mi NW 21.9 mph - 0.00 in Snow Light Snow
11:16 PM 30.2 °F 18.9 °F 26.6 °F 86% 29.72 in 3.0 mi NW 16.1 mph - 0.00 in Snow Light Snow
11:31 PM 30.2 °F 18.5 °F 24.8 °F 80% 29.73 in 7.0 mi NW 17.3 mph 27.6 mph 0.00 in Snow Light Snow
11:41 PM 28.4 °F 14.1 °F 24.8 °F 86% 29.73 in 9.0 mi NW 24.2 mph 28.8 mph 0.00 in   Overcast
11:54 PM 28.0 °F 14.6 °F 23.0 °F 81% 29.79 in 6.0 mi NW 20.7 mph - 0.00 in   Haze